Location: Castillon
(43.1358°N, 0.8654°E)
Time: 18:38:49
(UTC+00:00)

COSMO-SKYMED 1 - Pass Details

Date: 24 January 2021
Orbit: 621 x 623 km, 97.9° (Epoch: 28 February)

Event Time Altitude Azimuth Distance (km) Brightness Sun altitude
Rises 17:32:31 0° 20° (NNE) 2,913 5.6 -6.6°
Reaches altitude 10° 17:34:51 10° 28° (NNE) 2,001 4.7 -7.0°
Maximum altitude 17:38:56 39° 98° (E) 938 3.1 -7.7°
Drops below altitude 10° 17:42:59 10° 168° (SSE) 1,985 5.2 -8.4°
Sets 17:45:17 0° 176° (S) 2,886 6.2 -8.8°
